Regional Weather Roundup
Issued by NWS

Home | Current Version | Previous Version | Text Only | Print | Product List | Glossary Off
Versions: 1 2 3 4 5 6 7 8 9 10 11 12 13 14 15 16 17 18 19 20 21 22 23 24 25 26 27 28 29 30 31 32 33 34 35 36 37 38 39 40 41 42 43 44 45 46 47 48 49 50

390
ASUS45 KPSR 161410
RWRAZ

ARIZONA HOURLY REGIONAL WEATHER ROUNDUP
NATIONAL WEATHER SERVICE PHOENIX AZ
700 AM MST WED AUG 16 2017

NOTE: FAIR INDICATES FEW OR NO CLOUDS BELOW 12,000 FEET WITH NO
SIGNIFICANT WEATHER AND/OR OBSTRUCTIONS TO VISIBILITY.

AZZ001>003-036-161500-
NORTHWEST ARIZONA

CITY           SKY/WX    TMP DP  RH WIND       PRES   REMARKS
BULLHEAD CITY  SUNNY     81  41  24 CALM      29.82R
KINGMAN        SUNNY     71  38  29 SE7       29.99R
$$

AZZ004>008-015-016-018-161500-
NORTH CENTRAL ARIZONA

CITY           SKY/WX    TMP DP  RH WIND       PRES   REMARKS
GRAND CANYON   SUNNY     47  30  51 CALM      30.23R
WILLIAMS       CLOUDY    50  34  53 S9        30.23R
PRESCOTT       SUNNY     58  41  53 CALM      30.13R
FLAGSTAFF      MOSUNNY   45  38  76 CALM      30.25R
PAYSON           N/A     59  37  44 CALM      30.17R
PAGE           SUNNY     69  31  24 CALM      30.06R
$$

AZZ009>014-017-161500-
NORTHEAST ARIZONA

CITY           SKY/WX    TMP DP  RH WIND       PRES   REMARKS
WINSLOW        SUNNY     58  44  60 E5        30.14R
SAINT JOHNS    SUNNY     61  47  59 S7        30.19R
WINDOW ROCK    SUNNY     53  34  48 CALM      30.25R
SHOW LOW       SUNNY     59  43  55 S6        30.25R
$$

AZZ540-542>544-546-548-161500-
GREATER PHOENIX AREA

CITY           SKY/WX    TMP DP  RH WIND       PRES   REMARKS
PHOENIX        MOSUNNY   80  50  34 E8        29.88R
BUCKEYE        SUNNY     77  46  33 E6        29.88R
GLENDALE       SUNNY     79  48  34 N3        29.90R
LUKE AFB       SUNNY     76  52  43 NW5       29.88R
DEER VALLEY    SUNNY     77  40  26 E5        29.90R
SCOTTSDALE     SUNNY     79  43  27 CALM      29.93R
MESA-FALCON    SUNNY     79  45  29 N5        29.92R
MESA-GATEWAY   SUNNY     75  48  38 SE7       29.92R
CHANDLER       SUNNY     93  54  26 NE9       29.90R
$$

AZZ539-553-161500-
SOUTHWEST MARICOPA COUNTY AND PINAL COUNTY

CITY           SKY/WX    TMP DP  RH WIND       PRES   REMARKS
CASA GRANDE    SUNNY     77  50  38 E7        29.92R
GILA BEND      SUNNY     81  43  26 S6        29.85R
$$

AZZ503-504-507>509-161500-
SOUTHEAST ARIZONA

CITY           SKY/WX    TMP DP  RH WIND       PRES   REMARKS
TUCSON         NOT AVBL
DAVIS-MONTHAN  SUNNY     71  47  43 SE7       30.02R
RYAN FIELD     SUNNY     70  48  46 E8        30.01
NOGALES        SUNNY     63  50  62 CALM      30.11R
SIERRA VISTA   SUNNY     66  51  57 CALM      30.16R
DOUGLAS        SUNNY     65  59  81 NE5       30.13R
SAFFORD        SUNNY     72  53  51 NE5       30.03R
$$

AZZ532-161500-
SOUTHWEST ARIZONA

CITY           SKY/WX    TMP DP  RH WIND       PRES   REMARKS
YUMA           NOT AVBL
$$

CAZ041-043-047-048-061-525>527-560>570-161500-
SOUTHERN CALIFORNIA

CITY           SKY/WX    TMP DP  RH WIND       PRES   REMARKS
DOWNTOWN L.A.  CLOUDY    68  57  68 E3        29.96R
L.A. AIRPORT   CLOUDY    68  58  70 SE9       29.96R
SAN DIEGO      MOCLDY    68  56  65 E5        29.99R
BURBANK        MOCLDY    65  57  75 S6        29.96S
ONTARIO        CLOUDY    65  57  75 CALM      29.98R
RIVERSIDE      CLOUDY    65  59  81 CALM      29.98R
PALM SPRINGS   CLEAR     75  54  47 CALM      29.84R
EL CENTRO NAS  SUNNY     81  22  11 SW14      29.80R
IMPERIAL       SUNNY     81  31  16 SW12      29.78R
BLYTHE         SUNNY     75  38  26 NW5       29.81R
NEEDLES        SUNNY     83  34  17 W5        29.83R
$$

NVZ020-UTZ003-161500-
SOUTHERN NEVADA-UTAH

CITY           SKY/WX    TMP DP  RH WIND       PRES   REMARKS
LAS VEGAS      SUNNY     79  41  25 W6        29.89R
SALT LAKE CITY MOSUNNY   65  44  46 SE7       30.06R
$$

NMZ009-TXZ055-161500-
NEW MEXICO-WEST TEXAS

CITY           SKY/WX    TMP DP  RH WIND       PRES   REMARKS
ALBUQUERQUE    MOSUNNY   66  41  40 SW3       30.16R
EL PASO        MOSUNNY   79  54  41 W13       30.05R
$$


........................KEY........................
SKY/WX - SKY CONDITION/WEATHER
TMP    - TEMPERATURE IN FAHRENHEIT
DP     - DEW POINT IN FAHRENHEIT
RH     - RELATIVE HUMIDITY IN PERCENT
WIND   - DIRECTION AND SPEED IN MILES PER HOUR (MPH)
VRB    - VARIABLE WIND DIRECTION
PRES   - MEAN SEA LEVEL PRESSURE IN INCHES OF MERCURY
         F - FALLING PRESSURE   R - RISING PRESSURE
         S - STEADY PRESSURE
VSB    - VISIBILITY IN MILES
HX     - HEAT INDEX IN FAHRENHEIT
WCI    - WIND CHILL INDEX IN FAHRENHEIT
TC     - TEMPERATURE IN CELSIUS WHICH IS ALSO KNOWN AS
         TEMPERATURE IN CENTIGRADE
AFB    - AIR FORCE BASE
         LUKE AFB IS LUKE AIR FORCE BASE
         DAVIS-MONTHAN IS DAVIS-MONTHAN AIR FORCE BASE
NAS    - NAVAL AIR STATION
         EL CENTRO NAS IS EL CENTRO NAVAL AIR STATION
N/A    - NOT AVAILABLE





USA.gov is the U.S. government's official web portal to all federal, state and local government web resources and services.